User: anonymous   Login
Location: Newark
(52.3735°N, 16.9806°E)
Time: 12:44:42
(UTC+00:00)
Language:

ITAMSAT 1 - Orbit

View from above orbital plane
View from above orbital plane
View from above satellite
View from above satellite

Ground track
Ground track

The orbit data is extracted from the following two-line orbital elements,

1 22826U 93061D   21339.92866324  .00000013  00000-0  22716-4 0  9993
2 22826  98.9014   1.5642 0008096 239.1550 120.8835 14.30475327470744
Epoch (UTC): 05 December 2021 22:17:16
Eccentricity: 0.0008096
inclination: 98.9014°
perigee height: 784 km
apogee height: 796 km
right ascension of ascending node: 1.5642°
argument of perigee: 239.1550°
revolutions per day: 14.30475327
mean anomaly at epoch: 120.8835°
orbit number at epoch: 47074

The dashed part of the orbit path shows where the satellite is in the earth's shadow,  

DLR